�N����,����,�~����,�C��,���x,�C��,����,���ϕ���,�ő�u�ԕ���,�ő厞����,���˗�,�I�_���x,�n�����x,�ő啗���N��,DTYPE
"22/06/21","00:10",0.0,23.5,84.5,1000.8,327.2,1.5,2.6,316.9,0.00,20.8,23.2,"00:09:12",1
"22/06/21","00:20",0.0,23.3,85.0,1000.8,314.5,1.8,2.7,337.8,0.00,20.7,23.3,"00:11:36",1
"22/06/21","00:30",0.0,23.3,85.5,1001.0,326.6,2.1,3.2,334.8,0.00,20.8,23.0,"00:21:20",1
"22/06/21","00:40",0.0,23.2,85.7,1000.8,322.8,1.8,2.5,312.8,0.00,20.7,23.1,"00:31:04",1
"22/06/21","00:50",0.0,23.1,85.9,1001.0,308.4,1.8,2.6,320.0,0.00,20.7,23.0,"00:45:52",1
"22/06/21","01:00",0.0,23.1,86.2,1000.8,308.1,1.8,2.6,318.0,0.00,20.7,23.0,"00:50:56",1
"22/06/21","01:10",0.0,22.9,86.3,1001.0,315.7,1.3,2.1,329.6,0.00,20.5,22.9,"01:01:44",1
"22/06/21","01:20",0.0,22.7,86.6,1001.2,294.2,0.8,1.3,328.5,0.00,20.4,23.1,"01:18:24",1
"22/06/21","01:30",0.0,22.6,86.9,1001.0,317.1,1.2,1.7,331.5,0.00,20.3,22.9,"01:24:56",1
"22/06/21","01:40",0.0,22.6,87.2,1001.0,320.7,1.1,1.6,317.1,0.00,20.4,23.1,"01:33:52",1
"22/06/21","01:50",0.0,22.4,87.4,1001.2,309.7,1.1,1.6,319.3,0.00,20.2,23.0,"01:40:16",1
"22/06/21","02:00",0.0,22.4,87.9,1001.0,309.7,1.2,1.9,309.7,0.00,20.3,22.7,"01:58:00",1
"22/06/21","02:10",0.0,22.3,88.3,1001.2,318.3,1.2,1.8,325.3,0.00,20.3,22.7,"02:01:12",1
"22/06/21","02:20",0.0,22.3,88.6,1001.0,291.9,1.2,1.6,323.0,0.00,20.4,22.7,"02:10:02",1
"22/06/21","02:30",0.0,22.1,88.8,1001.0,299.3,1.1,1.6,320.7,0.00,20.2,22.7,"02:20:08",1
"22/06/21","02:40",0.0,22.2,89.1,1001.0,314.7,1.7,2.5,317.4,0.00,20.4,22.6,"02:38:16",1
"22/06/21","02:50",0.0,22.1,89.3,1000.8,319.9,1.7,2.6,335.6,0.00,20.3,22.7,"02:44:00",1
"22/06/21","03:00",0.0,22.0,89.4,1000.8,294.3,0.8,1.2,306.9,0.00,20.2,22.6,"02:55:28",1
"22/06/21","03:10",0.0,21.9,89.6,1000.8,291.2,1.0,1.3,310.6,0.00,20.2,22.7,"03:03:04",1
"22/06/21","03:20",0.0,21.9,89.8,1001.0,309.7,1.5,2.1,295.1,0.00,20.2,22.6,"03:19:20",1
"22/06/21","03:30",0.0,21.8,89.9,1001.0,318.0,1.2,1.6,314.4,0.00,20.1,22.5,"03:20:40",1
"22/06/21","03:40",0.0,21.7,90.0,1001.0,301.9,1.0,1.4,306.8,0.00,20.0,22.6,"03:30:48",1
"22/06/21","03:50",0.0,21.6,90.2,1001.2,295.4,1.1,1.4,317.8,0.00,20.0,22.4,"03:43:44",1
"22/06/21","04:00",0.0,21.6,90.3,1001.2,303.1,1.1,1.6,310.4,0.00,20.0,22.3,"03:55:28",1
"22/06/21","04:10",0.0,21.5,90.4,1001.5,308.2,1.2,1.3,311.6,0.00,19.9,22.6,"04:03:20",1
"22/06/21","04:20",0.0,21.6,90.6,1001.7,319.6,1.2,1.7,324.2,0.00,20.0,22.3,"04:19:12",1
"22/06/21","04:30",0.0,21.5,90.8,1001.7,302.8,1.3,2.1,314.0,0.00,20.0,22.5,"04:22:32",1
"22/06/21","04:40",0.0,21.6,90.9,1001.2,313.8,1.1,1.4,318.6,0.00,20.1,22.4,"04:31:44",1
"22/06/21","04:50",0.0,21.7,91.1,1001.5,310.4,1.2,1.7,326.0,0.00,20.2,22.4,"04:49:36",1
"22/06/21","05:00",0.0,21.8,91.1,1001.5,314.3,1.1,1.7,313.8,0.00,20.3,22.2,"04:51:36",1
"22/06/21","05:10",0.0,21.8,91.2,1001.7,290.3,0.7,1.6,262.9,0.00,20.3,22.4,"05:02:16",1
"22/06/21","05:20",0.0,21.8,91.4,1001.7,287.9,1.0,1.2,282.7,0.00,20.4,22.5,"05:15:20",1
"22/06/21","05:30",0.0,21.9,91.6,1001.7,308.9,1.2,1.7,318.7,0.00,20.5,22.2,"05:27:12",1
"22/06/21","05:40",0.0,21.9,91.6,1001.2,307.4,1.1,1.4,313.4,0.00,20.5,22.4,"05:32:40",1
"22/06/21","05:50",0.0,22.0,91.7,1001.5,277.6,1.0,1.6,264.4,0.00,20.6,22.3,"05:41:44",1
"22/06/21","06:00",0.0,22.1,91.8,1001.2,312.7,1.1,2.1,338.2,0.00,20.7,22.1,"05:57:52",1
"22/06/21","06:10",0.0,22.2,91.8,1001.2,328.3,1.2,1.7,339.5,0.00,20.8,22.3,"06:00:32",1
"22/06/21","06:20",0.0,22.4,91.8,1001.2,320.3,1.2,1.4,322.4,0.00,21.0,22.2,"06:12:24",1
"22/06/21","06:30",0.0,22.3,91.8,1001.5,318.2,1.1,1.3,310.4,0.00,20.9,22.2,"06:21:44",1
"22/06/21","06:40",0.0,22.5,91.8,1001.7,279.5,0.8,1.1,271.7,0.00,21.1,22.2,"06:36:32",1
"22/06/21","06:50",0.0,22.5,91.7,1001.7,298.5,1.1,1.7,320.1,0.00,21.1,22.2,"06:45:36",1
"22/06/21","07:00",0.0,22.7,91.7,1001.9,306.6,1.0,1.4,322.7,0.01,21.3,22.2,"06:50:56",1
"22/06/21","07:10",0.0,22.9,91.6,1002.2,302.6,0.7,1.1,334.7,0.01,21.5,22.2,"07:08:56",1
"22/06/21","07:20",0.0,23.0,91.4,1002.4,312.2,0.8,1.1,319.5,0.01,21.6,22.2,"07:17:52",1
"22/06/21","07:30",0.0,23.0,91.3,1002.4,327.4,0.8,1.2,333.8,0.00,21.5,22.2,"07:28:56",1
"22/06/21","07:40",0.0,23.1,91.2,1002.4,323.2,0.8,1.2,330.2,0.00,21.6,22.3,"07:38:40",1
"22/06/21","07:50",0.0,23.3,91.0,1002.9,321.8,1.0,1.3,329.4,0.01,21.8,22.3,"07:47:36",1
"22/06/21","08:00",0.0,23.4,90.9,1002.6,318.5,0.7,1.1,321.9,0.01,21.9,22.3,"07:50:08",1
"22/06/21","08:10",0.0,23.4,90.8,1002.6,299.9,0.8,1.1,316.8,0.01,21.9,22.2,"08:00:24",1
"22/06/21","08:20",0.0,23.3,90.6,1002.6,316.1,1.5,2.1,318.7,0.01,21.7,22.2,"08:16:00",1
"22/06/21","08:30",0.0,23.3,90.5,1002.6,314.8,1.2,1.7,331.1,0.03,21.7,22.2,"08:24:56",1
"22/06/21","08:40",0.0,23.6,90.3,1002.6,326.1,1.1,1.7,334.4,0.04,22.0,22.2,"08:38:24",1
"22/06/21","08:50",0.0,23.8,90.1,1002.4,332.6,0.8,1.2,345.8,0.04,22.1,22.0,"08:40:56",1
"22/06/21","09:00",0.0,23.9,90.0,1002.9,321.8,1.0,1.2,321.4,0.04,22.2,22.2,"08:50:56",1
"22/06/21","09:10",0.0,24.1,89.7,1002.6,330.7,1.2,1.7,337.0,0.05,22.3,22.2,"09:04:16",1
"22/06/21","09:20",0.0,24.2,89.3,1002.4,333.4,1.1,1.4,339.6,0.05,22.4,22.4,"09:10:08",1
"22/06/21","09:30",0.0,24.2,89.1,1002.2,310.3,1.0,1.6,328.3,0.06,22.3,22.2,"09:21:20",1
"22/06/21","09:40",0.0,24.1,88.6,1002.2,292.8,1.0,1.9,330.3,0.06,22.1,22.3,"09:38:48",1
"22/06/21","09:50",0.0,24.6,88.4,1001.9,287.2,0.7,1.2,317.8,0.10,22.6,22.3,"09:42:56",1
"22/06/21","10:00",0.0,24.7,88.1,1001.9,264.8,1.0,1.7,243.5,0.11,22.6,22.3,"09:53:12",1
"22/06/21","10:10",0.0,24.8,87.5,1001.9,281.8,0.5,1.4,243.6,0.09,22.6,22.3,"10:01:44",1
"22/06/21","10:20",0.0,24.8,87.1,1001.7,281.8,0.7,1.2,258.7,0.05,22.5,22.2,"10:16:24",1
"22/06/21","10:30",0.0,24.7,87.0,1001.7,260.7,0.6,1.1,250.4,0.03,22.4,22.3,"10:22:00",1
"22/06/21","10:40",0.0,24.6,86.9,1001.9,293.0,0.6,1.0,314.8,0.03,22.3,22.2,"10:33:44",1
"22/06/21","10:50",0.2,24.5,87.2,1002.2,239.6,0.6,1.8,237.3,0.02,22.3,22.3,"10:45:44",1
"22/06/21","11:00",0.0,24.7,87.4,1001.7,265.7,0.3,1.0,256.8,0.05,22.5,22.1,"10:51:54",1
"22/06/21","11:10",0.0,24.8,87.6,1001.7,245.5,0.6,1.1,228.5,0.08,22.6,22.4,"11:08:40",1
"22/06/21","11:20",0.0,24.8,87.6,1001.9,260.1,0.3,1.1,206.0,0.06,22.6,22.5,"11:10:32",1
"22/06/21","11:30",0.2,24.9,87.6,1002.2,348.8,0.5,1.0,349.8,0.06,22.7,22.2,"11:21:20",1
"22/06/21","11:40",0.0,24.9,87.9,1001.9,254.1,0.8,1.7,334.3,0.06,22.8,22.5,"11:32:40",1
"22/06/21","11:50",0.2,24.8,88.3,1001.9,201.9,1.2,3.9,228.8,0.08,22.8,22.3,"11:45:04",1
"22/06/21","12:00",0.0,24.9,88.6,1001.9,218.9,1.0,2.7,229.3,0.09,22.9,22.4,"11:57:52",1
"22/06/21","12:10",0.2,24.8,88.8,1001.9,213.7,0.7,1.8,225.1,0.08,22.9,22.3,"12:00:08",1
"22/06/21","12:20",0.0,25.0,89.0,1001.9,223.8,1.0,1.9,219.6,0.10,23.1,22.5,"12:18:00",1
"22/06/21","12:30",0.2,24.9,89.2,1001.9,185.5,0.5,1.2,208.1,0.07,23.0,22.3,"12:20:08",1
"22/06/21","12:40",0.2,24.9,89.4,1001.9,219.3,0.7,1.2,225.5,0.06,23.1,22.4,"12:35:12",1
"22/06/21","12:50",0.2,24.9,89.4,1001.9,196.7,0.6,1.3,208.2,0.08,23.1,22.5,"12:40:24",1
"22/06/21","13:00",0.2,24.9,89.4,1001.7,149.0,0.2,1.6,198.3,0.05,23.1,22.3,"12:54:48",1
"22/06/21","13:10",0.6,24.7,89.4,1001.9,204.9,0.8,2.6,204.3,0.03,22.9,22.4,"13:09:12",1
"22/06/21","13:20",1.4,24.3,89.2,1001.7,196.0,1.6,3.7,223.9,0.04,22.4,22.6,"13:19:36",1
"22/06/21","13:30",2.0,24.0,90.1,1001.9,201.9,1.7,3.3,192.3,0.04,22.3,22.7,"13:25:20",1
"22/06/21","13:40",0.8,23.7,90.4,1001.7,208.5,1.0,3.1,203.5,0.04,22.1,22.8,"13:31:28",1
"22/06/21","13:50",0.6,23.7,90.8,1001.5,307.7,0.7,1.3,319.4,0.05,22.1,22.7,"13:42:16",1
"22/06/21","14:00",0.4,23.7,90.8,1001.5,208.7,1.3,3.7,196.6,0.02,22.1,22.7,"13:57:44",1
"22/06/21","14:10",0.6,23.3,91.1,1001.5,171.6,1.6,2.8,180.2,0.03,21.8,22.5,"14:08:32",1
"22/06/21","14:20",0.2,23.5,91.3,1001.2,163.7,1.6,2.6,183.2,0.09,22.0,22.5,"14:13:44",1
"22/06/21","14:30",0.0,23.7,91.5,1001.5,168.1,1.3,2.5,187.1,0.10,22.3,22.8,"14:25:12",1
"22/06/21","14:40",0.0,24.2,91.6,1001.5,168.0,0.6,1.8,188.9,0.15,22.8,22.3,"14:31:28",1
"22/06/21","14:50",0.2,24.5,91.5,1001.2,60.8,0.3,1.1,153.3,0.16,23.1,22.6,"14:40:24",1
"22/06/21","15:00",0.0,24.5,91.3,1001.2,6.1,0.5,1.4,89.4,0.11,23.0,22.5,"14:52:08",1
"22/06/21","15:10",0.0,24.1,91.3,1001.0,325.7,1.0,1.9,319.9,0.02,22.6,22.6,"15:00:08",1
"22/06/21","15:20",0.2,24.0,91.4,1001.0,324.7,0.2,1.0,343.3,0.03,22.6,22.9,"15:12:32",1
"22/06/21","15:30",0.0,24.2,91.5,1001.2,354.8,0.5,1.8,344.5,0.06,22.8,22.6,"15:26:48",1
"22/06/21","15:40",0.0,24.2,91.5,1001.2,342.4,0.8,1.7,325.2,0.08,22.8,22.7,"15:32:24",1
"22/06/21","15:50",0.2,24.1,91.5,1001.5,339.7,1.1,2.1,344.0,0.03,22.7,22.8,"15:42:48",1
"22/06/21","16:00",0.0,24.2,91.6,1001.0,355.7,0.7,1.2,354.6,0.07,22.8,22.7,"15:50:02",1
"22/06/21","16:10",0.2,24.3,91.5,1001.0,353.3,0.6,1.8,332.2,0.06,22.9,22.6,"16:09:52",1
"22/06/21","16:20",0.2,24.0,91.6,1001.0,337.8,0.8,2.2,343.6,0.01,22.6,22.8,"16:10:08",1
"22/06/21","16:30",0.6,23.9,91.7,1001.2,296.6,0.7,1.4,343.2,0.00,22.5,22.7,"16:22:16",1
"22/06/21","16:40",0.8,23.6,91.9,1001.2,251.2,0.5,1.1,197.4,0.00,22.2,22.8,"16:30:02",1
"22/06/21","16:50",0.6,23.6,92.0,1001.5,241.2,1.0,1.4,225.4,0.01,22.3,22.8,"16:43:04",1
"22/06/21","17:00",0.6,23.7,92.2,1001.0,339.4,0.7,1.2,341.0,0.01,22.4,22.9,"16:51:44",1
"22/06/21","17:10",0.8,23.5,92.2,1001.2,290.7,0.6,1.1,243.3,0.00,22.2,22.7,"17:05:20",1
"22/06/21","17:20",0.6,23.4,92.3,1001.0,277.9,0.3,0.9,356.6,0.00,22.1,22.8,"17:12:16",1
"22/06/21","17:30",0.2,23.4,92.4,1001.0,22.6,0.1,0.6,92.4,0.01,22.1,22.9,"17:24:08",1
"22/06/21","17:40",0.0,23.3,92.5,1001.0,174.8,0.1,0.5,249.5,0.00,22.1,22.9,"17:31:04",1
"22/06/21","17:50",0.2,23.2,92.5,1001.2,291.6,0.3,0.9,338.7,0.00,22.0,22.7,"17:45:12",1
"22/06/21","18:00",0.2,23.2,92.7,1000.8,326.0,0.2,0.8,30.6,0.00,22.0,22.7,"17:59:36",1
"22/06/21","18:10",0.0,23.2,92.8,1000.5,345.4,0.3,0.8,62.1,0.00,22.0,22.8,"18:02:48",1
"22/06/21","18:20",0.8,23.4,92.9,1000.8,193.4,0.7,1.6,170.4,0.00,22.2,22.8,"18:14:24",1
"22/06/21","18:30",0.6,23.3,93.0,1000.5,195.2,0.3,1.4,170.2,0.00,22.1,22.7,"18:28:56",1
"22/06/21","18:40",0.0,23.4,93.1,1000.5,181.1,0.8,1.6,194.1,0.00,22.3,22.9,"18:37:52",1
"22/06/21","18:50",0.2,23.5,93.3,1000.5,211.7,0.8,1.6,226.7,0.00,22.4,22.7,"18:45:52",1
"22/06/21","19:00",0.2,23.4,93.4,1000.5,193.7,1.3,2.5,191.1,0.00,22.3,22.9,"18:59:44",1
"22/06/21","19:10",0.0,23.2,93.5,1000.5,194.7,1.5,2.2,199.1,0.00,22.1,22.8,"19:02:32",1
"22/06/21","19:20",0.0,23.0,93.7,1000.8,204.9,1.5,2.6,191.8,0.00,22.0,22.8,"19:11:36",1
"22/06/21","19:30",0.4,22.9,93.9,1001.0,208.4,0.8,1.4,195.5,0.00,21.9,22.7,"19:24:40",1
"22/06/21","19:40",0.6,22.7,94.0,1001.5,285.0,0.2,1.0,339.6,0.00,21.7,22.7,"19:30:02",1
"22/06/21","19:50",0.8,22.7,94.1,1001.0,353.5,0.8,1.2,352.9,0.00,21.7,22.7,"19:43:36",1
"22/06/21","20:00",0.2,22.8,94.2,1001.0,332.5,1.0,1.6,327.4,0.00,21.9,22.8,"19:59:36",1
"22/06/21","20:10",0.4,22.7,94.2,1001.2,326.3,1.0,1.9,344.1,0.00,21.8,22.8,"20:02:32",1
"22/06/21","20:20",0.8,22.6,94.3,1001.2,269.2,0.5,0.9,262.1,0.00,21.7,22.7,"20:10:16",1
"22/06/21","20:30",3.4,22.6,94.4,1001.2,240.1,0.5,1.1,246.4,0.00,21.7,22.7,"20:26:48",1
"22/06/21","20:40",1.6,22.6,94.5,1001.0,253.3,0.5,1.1,244.0,0.00,21.7,22.7,"20:38:24",1
"22/06/21","20:50",0.8,22.5,94.5,1001.7,264.4,0.6,1.1,258.3,0.00,21.6,22.6,"20:40:48",1
"22/06/21","21:00",1.4,22.5,94.6,1001.5,291.5,0.2,0.6,252.6,0.00,21.6,22.6,"20:50:24",1
"22/06/21","21:10",1.6,22.4,94.7,1001.7,244.7,0.3,1.1,194.8,0.00,21.5,22.8,"21:00:02",1
"22/06/21","21:20",2.2,22.4,94.7,1001.5,151.6,0.2,1.1,199.7,0.00,21.5,22.6,"21:10:08",1
"22/06/21","21:30",1.2,22.4,94.7,1001.7,294.3,0.2,0.6,249.0,0.00,21.5,22.7,"21:26:24",1
"22/06/21","21:40",0.6,22.5,94.8,1001.9,244.3,0.5,1.0,238.6,0.00,21.7,22.5,"21:38:58",1
"22/06/21","21:50",1.0,22.6,94.9,1001.7,211.7,0.8,1.7,228.2,0.00,21.8,22.6,"21:45:14",1
"22/06/21","22:00",0.2,22.5,94.9,1001.7,142.9,0.5,1.2,185.9,0.00,21.7,22.6,"21:50:08",1
"22/06/21","22:10",0.2,22.5,94.9,1001.9,308.2,0.2,0.9,321.9,0.00,21.7,22.7,"22:06:00",1
"22/06/21","22:20",0.0,22.5,94.9,1001.9,329.5,0.6,1.1,359.6,0.00,21.7,22.5,"22:15:06",1
"22/06/21","22:30",0.2,22.4,95.0,1001.7,334.5,0.1,0.6,63.8,0.00,21.6,22.6,"22:21:36",1
"22/06/21","22:40",0.2,22.2,95.1,1001.7,219.1,0.1,0.5,243.6,0.00,21.4,22.6,"22:38:10",1
"22/06/21","22:50",0.0,22.2,95.2,1001.7,237.6,0.5,0.9,236.5,0.00,21.4,22.5,"22:49:04",1
"22/06/21","23:00",0.0,22.2,95.2,1001.5,259.4,0.5,0.9,231.4,0.00,21.4,22.6,"22:52:08",1
"22/06/21","23:10",0.0,22.2,95.3,1001.7,288.6,0.3,0.8,227.9,0.00,21.5,22.7,"23:07:44",1
"22/06/21","23:20",0.2,22.3,95.2,1001.9,190.3,0.6,1.2,242.4,0.00,21.5,22.7,"23:10:16",1
"22/06/21","23:30",0.0,22.2,95.3,1001.9,242.2,0.2,0.8,137.7,0.00,21.5,22.6,"23:29:20",1
"22/06/21","23:40",0.0,22.3,95.4,1001.7,179.7,0.6,1.1,144.1,0.00,21.6,22.7,"23:35:52",1
"22/06/21","23:50",0.0,22.3,95.4,1001.7,214.1,0.7,1.7,190.2,0.00,21.6,22.6,"23:45:52",1
"22/06/21","24:00",0.2,22.2,95.4,1001.5,246.3,0.3,0.9,258.1,0.00,21.5,22.7,"23:55:28",1
